False Pass, AK

6:16 AM AKST on January 17, 2017 (GMT -0900)
False Pass

Weather History for PAKF - December, 2012

Change the Weather History Date:

Friday, December 21, 2012

  Actual Average (PACD) Record (PACD)
Temperature  
Mean Temperature 35 °F -  
Max Temperature 37 °F 38 °F 46 °F (1945)
Min Temperature 33 °F 30 °F 3 °F (2006)
Degree Days  
Heating Degree Days 30    
Moisture  
Dew Point 31 °F    
Average Humidity 83    
Maximum Humidity 89    
Minimum Humidity 75    
Precipitation  
Precipitation 0.00 in - - ()
Sea Level Pressure  
Sea Level Pressure 30.08 in    
Wind  
Wind Speed 14 mph (SSE)    
Max Wind Speed 20 mph    
Max Gust Speed 30 mph    
Visibility 8 miles    
Events Rain , Snow    
Averages and records for this station are not official NWS values.
T = Trace of Precipitation, MM = Missing Value Source: NWS Daily Summary

Daily Weather History Graph

Daily Weather History Graph

Search for Another Location

Airport or City:

Trip Planner

Search our weather history database for the weather conditions in past years. The results will help you decide how hot, cold, wet, or windy it might be!

Date:

Astronomy

Dec. 21, 2012 Rise Set
Actual Time 9:16 AM HST 4:28 PM HST
Civil Twilight 8:30 AM HST 5:13 PM HST
Nautical Twilight 7:43 AM HST 6:00 PM HST
Astronomical Twilight 6:59 AM HST 6:45 PM HST
Moon 12:58 PM HST (12/21) 2:33 AM HST (12/21)
Length of Visible Light 8h 42m
Length of Day
7h 11m
Waxing Gibbous, 66% of the Moon is Illuminated
Dec 21
Waxing Gibbous
Dec 28
Full
Jan 4
Last Quarter
Jan 11
New
Jan 18
First Quarter

Hourly Weather History & Observations

Time (HST) Temp. Windchill Dew Point Humidity Pressure Visibility Wind Dir Wind Speed Gust Speed Precip Events Conditions
12:01 AM 36.0 °F 25.3 °F 32.0 °F 86% 30.28 in 10.0 mi SE 19.6 mph 29.9 mph N/A   Mostly Cloudy
12:17 AM 35.6 °F 25.5 °F 32.0 °F 87% 29.99 in 10.0 mi SE 17.3 mph 28.8 mph N/A   Scattered Clouds
1:01 AM 36.0 °F 25.6 °F 32.0 °F 86% 30.27 in 10.0 mi SE 18.4 mph 28.8 mph N/A   Scattered Clouds
3:01 AM 37.0 °F 27.0 °F 32.0 °F 82% 30.24 in 10.0 mi SSE 18.4 mph 29.9 mph N/A   Scattered Clouds
3:17 AM 37.4 °F 27.8 °F 32.0 °F 81% 29.95 in 10.0 mi SSE 17.3 mph 27.6 mph N/A   Mostly Cloudy
3:24 AM 37.4 °F 27.2 °F 32.0 °F 81% 29.95 in 10.0 mi SE 19.6 mph 28.8 mph N/A   Mostly Cloudy
4:01 AM 37.0 °F 27.7 °F 33.1 °F 86% 30.24 in 10.0 mi SE 16.1 mph 24.2 mph N/A   Overcast
4:27 AM 37.4 °F 28.2 °F 33.8 °F 87% 29.95 in 10.0 mi SSE 16.1 mph 25.3 mph N/A   Mostly Cloudy
5:01 AM 37.0 °F 28.1 °F 32.0 °F 82% 30.22 in 10.0 mi SSE 15.0 mph 26.5 mph N/A   Overcast
6:01 AM 37.0 °F 28.9 °F 32.0 °F 82% 30.22 in 10.0 mi SSE 12.7 mph 18.4 mph N/A   Overcast
7:01 AM 37.0 °F 28.5 °F 30.9 °F 79% 30.21 in 10.0 mi SSE 13.8 mph 23.0 mph N/A   Overcast
8:01 AM 37.0 °F 28.5 °F 30.9 °F 79% 30.20 in 10.0 mi SSE 13.8 mph 21.9 mph N/A   Overcast
9:01 AM 37.0 °F 28.9 °F 32.0 °F 82% 30.20 in 10.0 mi SE 12.7 mph 25.3 mph N/A   Overcast
9:27 AM 35.6 °F 25.2 °F 32.0 °F 87% 29.91 in 10.0 mi SE 18.4 mph 28.8 mph N/A   Overcast
10:01 AM 36.0 °F 26.3 °F 32.0 °F 86% 30.20 in 10.0 mi ESE 16.1 mph 23.0 mph N/A   Overcast
10:36 AM 35.6 °F 25.9 °F 30.2 °F 81% 29.91 in 10.0 mi SE 16.1 mph 27.6 mph N/A   Overcast
11:01 AM 36.0 °F 26.7 °F 30.9 °F 82% 30.19 in 10.0 mi SE 15.0 mph 25.3 mph N/A   Overcast
12:01 PM 36.0 °F 27.5 °F 30.9 °F 82% 30.19 in 10.0 mi ESE 12.7 mph 24.2 mph N/A   Overcast
1:01 PM 36.0 °F 27.5 °F 30.9 °F 82% 30.17 in 10.0 mi SE 12.7 mph 23.0 mph N/A   Overcast
2:01 PM 36.0 °F 27.5 °F 30.0 °F 79% 30.17 in 10.0 mi ESE 12.7 mph 19.6 mph N/A   Overcast
3:01 PM 36.0 °F 29.0 °F 30.0 °F 79% 30.16 in 10.0 mi SE 9.2 mph - 0.00 in Rain Light Rain
4:01 PM 36.0 °F 29.0 °F 30.0 °F 79% 30.16 in 10.0 mi SSE 9.2 mph - 0.00 in Rain Light Rain
5:01 PM 36.0 °F 29.6 °F 28.9 °F 76% 30.15 in 10.0 mi SSE 8.1 mph - 0.00 in Rain Light Rain
5:26 PM 35.6 °F 27.5 °F 28.4 °F 75% 29.87 in 10.0 mi SSE 11.5 mph 20.7 mph 0.00 in Rain Light Rain
6:01 PM 35.1 °F 30.1 °F 28.9 °F 78% 30.16 in 10.0 mi Variable 5.8 mph - 0.00 in Rain Light Rain
6:56 PM 33.8 °F 25.3 °F 30.2 °F 87% 29.90 in 3.0 mi SE 11.5 mph 18.4 mph 0.00 in Snow Light Snow
7:01 PM 34.0 °F 28.8 °F 30.9 °F 89% 30.18 in 3.0 mi SSE 5.8 mph 18.4 mph 0.00 in Snow Light Snow
7:08 PM 33.8 °F 25.8 °F 30.2 °F 87% 29.90 in 2.5 mi SSE 10.4 mph - 0.00 in Snow Light Snow
7:22 PM 33.8 °F 27.0 °F 30.2 °F 87% 29.90 in 4.0 mi SSE 8.1 mph 16.1 mph 0.00 in Snow Light Snow
8:01 PM 34.0 °F 27.2 °F 28.0 °F 79% 30.19 in 7.0 mi SSE 8.1 mph - 0.00 in Snow Light Snow
9:01 PM 33.1 °F 27.7 °F 28.9 °F 85% 30.20 in 3.0 mi Variable 5.8 mph - 0.00 in Snow Light Snow
9:30 PM 33.8 °F 25.8 °F 30.2 °F 87% 29.92 in 3.0 mi SSE 10.4 mph - 0.00 in Snow Light Snow
10:01 PM 33.8 °F 28.6 °F 30.2 °F 87% 29.92 in 2.5 mi South 5.8 mph - 0.00 in Snow Light Snow
10:10 PM 33.8 °F 28.6 °F 30.2 °F 87% 29.93 in 3.0 mi SSE 5.8 mph - 0.00 in Snow Light Snow
10:18 PM 33.8 °F 28.6 °F 30.2 °F 87% 29.93 in 2.5 mi South 5.8 mph - 0.00 in Snow Light Snow
11:01 PM 33.1 °F 28.7 °F 30.0 °F 89% 30.22 in 2.5 mi South 4.6 mph - 0.00 in Snow Light Snow
11:08 PM 33.8 °F 29.6 °F 30.2 °F 87% 29.94 in 3.0 mi South 4.6 mph - 0.00 in Snow Light Snow
11:30 PM 33.8 °F - 30.2 °F 87% 29.94 in 9.0 mi Calm Calm - 0.00 in Snow Light Snow